User: anonymous   Login
Location: Caltech
(34.1382°N, 118.1253°W)
Time: 07:27:14
(UTC-07:00)
Language:

NOSS 3-4 (C) - Orbit

View from above orbital plane
View from above orbital plane
View from above satellite
View from above satellite

Ground track
Ground track

The orbit data is extracted from the following two-line orbital elements,

1 31708U 07027C   15086.83482506 0.00000000  00000-0  00000-0 0    04
2 31708  63.4030 353.9075 0126000  33.3689 326.6311 13.40675136    08
Epoch (UTC): 27 March 2015 20:02:08
Eccentricity: 0.0126000
inclination: 63.4030°
perigee height: 1012 km
apogee height: 1201 km
right ascension of ascending node: 353.9075°
argument of perigee: 33.3689°
revolutions per day: 13.40675136
mean anomaly at epoch: 326.6311°
orbit number at epoch: 0

The dashed part of the orbit path shows where the satellite is in the earth's shadow,  

DLR